Flag for US Virgin Islands Weather past 2 weeks in Christiansted, US Virgin Islands

Now
81 °F

Clear.


Feels Like: 86 °F
Forecast: 79 / 86 °F
Wind: 9 mph from East

Location: Christiansted / Henry E. Rohlsen Airport - Saint Croix

Current Time: Jul 28, 2015 at 11:47:09 PM

Latest Report: Jul 28, 2015 at 10:53 PM


Visibility: 10 mi

Pressure: 30.04 "Hg

Humidity: 77%

Dew point: 73 °F

Location of ChristianstedLocation

Historic Weather in Christiansted — Graph

°F

Christiansted temperature yesterday

Maximum temperature yesterday: 91 °F (at 11:53 AM)
Minimum temperature yesterday: 80 °F (at 2:53 AM)
Average temperature yesterday: 85 °F

Past Weeks' High & Low Weather Summary

 TemperatureHumidityPressure
High91 °F (Jul 27, 11:53 AM)94% (Jul 18, 10:45 AM)30.13 "Hg (Jul 18, 10:45 AM)
Low76 °F (Jul 18, 10:45 AM)53% (Jul 19, 11:53 AM)29.97 "Hg (Jul 21, 5:53 PM)
Average83 °F73%30.04 "Hg
* Reported Jul 13 9:53 PM — Jul 28 9:53 PM, Christiansted, Weather by CustomWeather, © 2015

Note: Actual official high and low records may vary slightly from our data, if they occured in-between our weather recording intervals... More about our weather records

Advertising

Christiansted weather history for previous 24 hours

 ConditionsComfort  
Time TempWeatherWind HumidityBarometerVisibility
9:53 PM
Tue, Jul 28
81 °FClear.8 mph77%30.04 "Hg10 mi
8:53 PM82 °FPassing clouds.10 mph72%30.03 "Hg10 mi
7:53 PM82 °FPartly cloudy.15 mph77%30.01 "Hg10 mi
6:53 PM83 °FScattered clouds.8 mph74%30.00 "Hg10 mi
5:53 PM85 °FScattered clouds.15 mph68%29.98 "Hg10 mi
4:53 PM86 °FPassing clouds.14 mph63%29.98 "Hg10 mi
3:53 PM89 °FPassing clouds.16 mph57%29.99 "Hg10 mi
2:53 PM90 °FSunny.20 mph56%29.99 "Hg10 mi
1:53 PM87 °FPassing clouds.16 mph63%30.01 "Hg10 mi
12:53 PM87 °FSunny.21 mph59%30.03 "Hg10 mi
11:53 AM89 °FPassing clouds.18 mph59%30.04 "Hg10 mi
10:53 AM87 °FScattered clouds.18 mph63%30.05 "Hg10 mi
9:53 AM90 °FScattered clouds.18 mph56%30.05 "Hg10 mi
8:53 AM87 °FScattered clouds.21 mph63%30.04 "Hg10 mi
7:53 AM84 °FScattered clouds.17 mph67%30.03 "Hg10 mi
6:53 AM82 °FPassing clouds.12 mph72%30.03 "Hg10 mi
5:53 AM80 °FClear.15 mph76%30.01 "Hg10 mi
4:53 AM80 °FPassing clouds.10 mph76%30.00 "Hg10 mi
3:53 AM80 °FPassing clouds.15 mph79%30.00 "Hg10 mi
2:53 AM81 °FClear.9 mph77%30.00 "Hg10 mi
1:53 AM82 °FPartly cloudy.12 mph79%30.00 "Hg10 mi
12:53 AM81 °FClear.10 mph79%30.02 "Hg10 mi
11:53 PM
Mon, Jul 27
81 °FClear.10 mph79%30.04 "Hg10 mi
Weather by CustomWeather, © 2015

See weather overviewHow to use our weather pages